Погода Завитая

Погода Завитая : погода сейчас, прогноз погоды и архив. Всё, что Вы хотите узнать о погоде Завитая!

Поиск расширенной информации на нашем сайте:

Полезная информация: Дизайн интерьера для начинающих обучение дизайну 10 правил для начинающего.

Другие новости

Новости СМИ2

Главная страница сайта

Новости сайта

02.10.2013

Напоминаем, что на нашем новом сайте вы можете получить высокодетализированные прогнозы погоды по пунктам России, СНГ и мира (включающие важные для авиации метеовеличины, такие как направление и скорость ветра, видимость, явления погоды, количество и форма облачности, нижняя и верхняя граница облачности), а также ознакомиться с разнообразными материалами по авиационной метеорологии и подборкой полезных ссылок на эту тему.

Сайт Метеоцентр.Азия посвящён разработке технологий оптимизации авиаметеорологического обслуживания, включая проектирование и перспективное создание нескольких автоматизированных авиаметеорологических систем:
- система выпуска высокодетальных прогностических карт явлений погоды для нижнего воздушного пространства по России и ближнему зарубежью;
- система верификации прогнозов TAF (выпускаемых синоптиками официальных АМСГ РФ и ближнего зарубежья) и AUTOTAF (выпускаемых сайтом Метеоцентр.Азия) - выявление ошибок, онлайн-сопоставление с фактической погодой METAR, автоматическое внесение коррективов в прогнозы при резком отклонении фактической погоды от прогноза, подсчёт оправдываемости прогнозов по элементам и в целом;
- система обработки, анализа и отображения авиаметеорологической информации для применения провайдерами метеорологической информации.

Рекомендуем: Преимущества использования технической соли для дорог vosopttorg.com.

Погода Завитая - сегодня

Время (UTC), дата Ветер
(°,м/с) 
Видим.   Явления Облачность Т
(°С)
Тd
(°С)
f(%) Тe
(°С)
Pmin
(гПа)
dP
(гПа)
Po
(мм)
O2
(г/м3)
Тmin Tmax R s Состояние
почвы
18 19.06.17 150 (ЮВ) 4000 м  гроза, ливневой дождь  10/10 600 м кучево-дожд. 
[Cb calv]
+15.3 +12.6 84 +21  1006.1  0.5  734  277           
21 19.06.17 110 (В) 20000 м  {гроза, ливн. осадки}  10/10 600 м кучево-дожд. 
[Cb calv]
+14.1 +12.8 92 +21  1007.2  734  279           
00 20.06.17 100 (В) 20000 м  {гроза, ливн. осадки}  10/10 600 м кучево-дожд. 
[Cb calv]
+14.6 +13.3 92 +21  1008.5  1.2  735  279  +14    15    влажная 
03 20.06.17 100 (В) 20000 м    10/10 600 м кучево-дожд. 
[Cb calv]
+18.9 +13.7 72 +27  1007.2  -0.8  735  274           
06 20.06.17 080 (В) 20000 м    10/10 600 м кучево-дожд. 
[Cb calv]
+19.2 +13.1 68 +26  1007.1  -0.1  735  274           
09 20.06.17 080 (В) 20000 м    6/4 600 м кучево-дожд., верхняя 
[Cb calv|Ci fib]
+20.3 +12.5 61 +25  1006.8  -0.1  735  273           
12 20.06.17 250 (З) 20000 м    4/3 600 м кучево-дожд., верхняя 
[Cb calv|Ci fib]
+16.7 +13.6 82 +25  1007.9  0.6  735  276    +21       
15 20.06.17 тихо ()   20000 м    3/0 средняя, верхняя 
[Ac trans|Ci fib]
+12.8 +11.5 92 +16  1009.3  736  281           
18 20.06.17 210 (ЮЗ) 20000 м    ясно 
+12.7 +11.3 91 +17  1009.2  -0.1  736  281           
21 20.06.17 240 (ЮЗ) 20000 м    3/0 верхняя 
[Ci fib]
+14 +12.7 92 +20  1008.6  -0.4  735  279           
00 21.06.17 260 (З) 20000 м    1/0 верхняя 
[Ci fib]
+19.5 +13.2 67 +27  1007.8  -0.3  735  274  +11.3        влажная 
03 21.06.17 300 (СЗ) 20000 м    3/1 600 м средняя 
[Cu hum|Ac trans]
+23.4 +14.4 57 +32  1006.5  -0.8  735  270           
06 21.06.17 330 (СЗ) 20000 м    9/5 600 м средняя, верхняя 
[Cu hum|Ac trans|Ci fib]
+25.9 +12.4 43 +31  1004.2  -2.1  733  267           
09 21.06.17 310 (СЗ) 20000 м    1/0 верхняя 
[Ci fib]
+27 +10.2 35 +29  1002.6  -1.4  732  267           
12 21.06.17 220 (ЮЗ) 20000 м    ясно 
+20.2 +13.2 64 +26  1003.6  0.4  732  272    +27.1       
15 21.06.17 240 (ЮЗ) 20000 м    ясно 
+17.2 +13.1 77 +24  1004.3  0.2  732  275           
18 21.06.17 240 (ЮЗ) 20000 м    3/3 1000 м средняя 
[Sc|Ac trans]
+16.5 +9.9 65 +19  1004.1  -0.1  732  276           
21 21.06.17 230 (ЮЗ) 20000 м    4/1 600 м верхняя 
[Cu hum|Ci fib]
+15.9 +11.5 75 +21  1004.6  0.3  733  277           
00 22.06.17 280 (З) 20000 м    1/0 верхняя 
[Ci fib]
+23.7 +14.1 55 +31  1004  0.2  733  269  +14.7        влажная 
03 22.06.17 290 (З) 20000 м    1/0 верхняя 
[Ci fib]
+28.4 +15 44 +38  1003.5  -0.1  733  264           
06 22.06.17 330 (СЗ) 20000 м    4/1 600 м верхняя 
[Cu hum|Ci fib]
+30.1 +13 35 +36  1002.7  -0.5  732  263           
09 22.06.17 310 (СЗ) 20000 м    1/0 верхняя 
[Ci fib]
+29.7 +14.3 39 +38  1001.8  -0.9  732  263           
12 22.06.17 тихо ()   20000 м    3/0 верхняя 
[Ci fib]
+23.9 +15.4 59 +34  1003.2  0.8  732  268    +30.9       
15 22.06.17 270 (З) 20000 м    ясно 
+19.2 +15.7 80 +32  1004.2  0.5  733  272           
18 22.06.17 220 (ЮЗ) 20000 м    1/0 верхняя 
[Ci fib]
+17.5 +14.6 83 +28  1004.3  -0.1  732  274           
Время (UTC), дата Ветер
(°,м/с) 
Видим.   Явления Облачность Т
(°С)
Тd
(°С)
f(%) Тe
(°С)
Pmin
(гПа)
dP
(гПа)
Po
(мм)
O2
(г/м3)
Тmin Tmax R s Состояние
почвы

Для получения пояснительной информации подведите курсор к названию столбца.

ПОГОДА Завитая - архив

Всё, что Вы хотите узнать о погоде Завитая - удобно и подробно!

Выберите нужную дату (начиная с 1 января 2015* года) и нажмите кнопку "Найти".
Будут отображены архивные сводки погоды по пункту Завитая, начиная с указанной даты.


Отображать данные в формате CSV (для использования в таблицах Excel)


Внимание! Наш архив погоды предназначен исключительно для личного некоммерческого использования в познавательных целях. Если Вам необходимы официальные справки о состоянии погоды (для производственных, юридических, коммерческих и т.п. целей), обращайтесь в органы Росгидромета.

*Примечание: данная дата относится к архиву по метеостанциям СССР (Россия, СНГ, Балтия).
Архив по метеостанциям Зарубежной Европы и Азии (кроме Китая) хранится 10 дней, по другим регионам земного шара (Китай, Африка, Америка, Австралия, Океания) - 1 день.

Завитая - район местоположения метеостанции


Название, широта, долгота, высота метеостанции:
Завитая 50.1°ш. 129.5°д. 241 м над ур. моря [Российская Федерация]

Дополнительная информация

В oтличие oт бoльшинства пoгoдных сайтoв мы публикуем пoдрoбную метеoинфoрмацию в детальнoм прoфессиoнальнoм фoрмате.

Характеристики температуры и влажнoсти вoздуха измеряются на высoте 2 м в тени вдали oт зданий и деревьев.
Скoрoсть ветра измеряется на высoте 10 м (на урoвне рoста челoвека скoрoсть ветра ниже в 1.5-2 раза). Если метеoстанция нахoдится в гoрoде или в лесу, тo скoрoсть ветра занижена на 2-4 м/с пo сравнению с oткрытым местoм. Скoрoсть ветра над акватoриями крупных рек и oзёр, а также на вершинах хoлмoв на 2-5 м/с выше, чем в oбычных услoвиях.
Атмoсфернoе давление в разных тoчках местнoсти мoжет значительнo oтличаться oт давления на метеoстанции, в зависимoсти oт услoвий рельефа (при пoдъёме на 10 м давление пoнижается примернo на 1 мм рт.ст.).